sat.trackr.live / text

‹ back to catalog

STARLINK-35523

NORAD 65910 · 2025-225A

PAYLOAD ACTIVE UNKNOWN

§ Identity

Operator
Country
US
Launch date
2025-10-08
Launch site
AFWTR
Launch vehicle
Mass (kg)
RCS (m²)

Purposes: comms

External: N2YO · Heavens-Above · Gunter

§ Orbital elements

Epoch: 2026-09-20T12:44:08.459808Z

Period
93.85 min
Inclination
53.1630°
Eccentricity
0.0001151
Mean motion
15.34408816 rev/d
Perigee alt
461.9 km
Apogee alt
463.5 km
Semi-major
6,840.8 km
B*
4.9065e-4
RAAN
337.5107°
Arg perigee
68.1936°
Mean anomaly
291.9189°
Rev number
5,428

§ Raw data

STARLINK-355231 65910U 25225A   26263.53065347  .00016242  00000+0  49065-3 0  99902 65910  53.1630 337.5107 0001151  68.1936 291.9189 15.34408816 54286

JSON: /api/v1/satellites/65910 · /tle

For live sub-satellite position, see the globe view (requires WebGL).

§ Visibility from observer

Set your observer location to see the next 7 days of passes ≥ 10°. The values pass through the URL so the page stays shareable.

No JS? Fill the form by hand. The geolocation button needs JavaScript.